Weather History for KDIK - May, 2014

Change the Weather History Date:

Saturday, May 24, 2014

  Actual Average Record
Temperature  
Mean Temperature 68 °F 56 °F  
Max Temperature 81 °F 68 °F 92 °F (1985)
Min Temperature 55 °F 43 °F 23 °F (1924)
Degree Days  
Heating Degree Days 0 10  
Month to date heating degree days 381 318  
Since 1 July heating degree days 8994 8380  
Cooling Degree Days 3 0  
Month to date cooling degree days 6 0  
Year to date cooling degree days 6 1  
Growing Degree Days 17 (Base 50)    
Moisture  
Dew Point 56 °F    
Average Humidity 68    
Maximum Humidity 93    
Minimum Humidity 43    
Precipitation  
Precipitation 2.67 in 0.08 in 2.67 in (2014)
Month to date precipitation 3.88 1.73  
Year to date precipitation 5.74 4.52  
Sea Level Pressure  
Sea Level Pressure 29.84 in    
Wind  
Wind Speed 13 mph (SSE)    
Max Wind Speed 26 mph    
Max Gust Speed 35 mph    
Visibility 7 miles    
Events Rain , Thunderstorm    
T = Trace of Precipitation, MM = Missing Value Source: NWS Daily Summary

Daily Weather History Graph

Daily Weather History Graph

Search for Another Location

Airport or City:

Trip Planner

Search our weather history database for the weather conditions in past years. The results will help you decide how hot, cold, wet, or windy it might be!

Date:

Astronomy

May. 24, 2014 Rise Set
Actual Time 5:06 AM MDT 8:29 PM MDT
Civil Twilight 4:29 AM MDT 9:07 PM MDT
Nautical Twilight 3:40 AM MDT 9:56 PM MDT
Astronomical Twilight 2:38 AM MDT 10:59 PM MDT
Moon 2:54 AM MDT (5/24) 4:14 PM MDT (5/24)
Length of Visible Light 16h 37m
Length of Day
15h 22m
Waning Crescent, 17% of the Moon is Illuminated
May 24
Waning Crescent
May 28
New
Jun 5
First Quarter
Jun 12
Full
Jun 19
Last Quarter

Hourly Weather History & Observations

Time (MDT) Temp. Dew Point Humidity Pressure Visibility Wind Dir Wind Speed Gust Speed Precip Events Conditions
12:56 AM 60.1 °F 55.0 °F 83% 29.86 in 10.0 mi South 6.9 mph - N/A   Clear
1:56 AM 60.1 °F 55.0 °F 83% 29.86 in 10.0 mi South 12.7 mph - N/A   Clear
2:56 AM 57.9 °F 54.0 °F 87% 29.86 in 10.0 mi South 9.2 mph - N/A   Clear
3:56 AM 55.9 °F 53.1 °F 90% 29.86 in 10.0 mi SSW 9.2 mph - N/A   Clear
4:56 AM 55.0 °F 51.1 °F 86% 29.87 in 10.0 mi South 10.4 mph - N/A   Clear
5:56 AM 55.9 °F 52.0 °F 87% 29.88 in 10.0 mi South 12.7 mph - N/A   Clear
6:56 AM 61.0 °F 54.0 °F 78% 29.87 in 10.0 mi South 5.8 mph - N/A   Clear
7:56 AM 66.9 °F 55.0 °F 66% 29.88 in 10.0 mi SSW 17.3 mph - N/A   Clear
8:56 AM 71.1 °F 55.9 °F 59% 29.88 in 10.0 mi SSW 15.0 mph - N/A   Clear
9:56 AM 75.0 °F 55.0 °F 50% 29.87 in 10.0 mi South 15.0 mph - N/A   Clear
10:56 AM 77.0 °F 54.0 °F 45% 29.85 in 10.0 mi South 9.2 mph - N/A   Clear
12:56 PM 75.0 °F 55.0 °F 50% 29.84 in 10.0 mi SSE 13.8 mph - N/A   Mostly Cloudy
1:56 PM 79.0 °F 55.9 °F 45% 29.82 in 10.0 mi SSE 16.1 mph 24.2 mph N/A   Mostly Cloudy
2:56 PM 77.0 °F 54.0 °F 45% 29.81 in 10.0 mi South 11.5 mph - N/A   Clear
3:56 PM 79.0 °F 55.0 °F 44% 29.79 in 10.0 mi South 13.8 mph - N/A   Overcast
4:22 PM 77.0 °F 55.9 °F 48% 29.82 in 10.0 mi SSE 11.5 mph - N/A Thunderstorm Mostly Cloudy
4:37 PM 73.0 °F 60.1 °F 64% 29.82 in 10.0 mi ESE 23.0 mph 32.2 mph N/A   Mostly Cloudy
4:45 PM 73.9 °F 61.0 °F 64% 29.82 in 10.0 mi ESE 20.7 mph 32.2 mph N/A Thunderstorm Mostly Cloudy
4:56 PM 73.0 °F 60.1 °F 64% 29.79 in 10.0 mi ESE 20.7 mph 26.5 mph N/A   Mostly Cloudy
5:10 PM 72.0 °F 60.1 °F 66% 29.82 in 10.0 mi ESE 20.7 mph 31.1 mph N/A Thunderstorm Mostly Cloudy
5:40 PM 69.1 °F 60.1 °F 73% 29.81 in 10.0 mi ESE 17.3 mph 26.5 mph N/A Thunderstorm Thunderstorm
5:56 PM 66.0 °F 61.0 °F 84% 29.80 in 6.0 mi East 12.7 mph - 0.06 in Rain , Thunderstorm Light Thunderstorms and Rain
6:26 PM 66.0 °F 57.9 °F 75% 29.81 in 10.0 mi East 19.6 mph 26.5 mph 0.00 in Thunderstorm Mostly Cloudy
6:56 PM 66.0 °F 60.1 °F 81% 29.79 in 10.0 mi ESE 20.7 mph - 0.00 in Thunderstorm Mostly Cloudy
7:19 PM 64.9 °F 61.0 °F 87% 29.82 in 10.0 mi ESE 18.4 mph 24.2 mph 0.01 in Rain , Thunderstorm Light Thunderstorms and Rain
7:41 PM 64.0 °F 61.0 °F 90% 29.83 in 2.5 mi SE 18.4 mph - 0.20 in Rain , Thunderstorm Heavy Thunderstorms and Rain
7:48 PM 63.0 °F 60.1 °F 90% 29.83 in 5.0 mi SE 23.0 mph 29.9 mph 0.20 in Rain , Thunderstorm Light Thunderstorms and Rain
7:56 PM 62.1 °F 59.0 °F 90% 29.81 in 3.0 mi SSE 19.6 mph 32.2 mph 0.27 in Rain , Thunderstorm Heavy Thunderstorms and Rain
8:00 PM 62.1 °F 59.0 °F 90% 29.86 in 1.8 mi SSE 24.2 mph 32.2 mph 0.11 in Rain , Thunderstorm Heavy Thunderstorms and Rain
8:14 PM 63.0 °F 57.0 °F 81% 29.84 in 1.2 mi SE 18.4 mph 34.5 mph 0.51 in Rain , Thunderstorm Heavy Thunderstorms and Rain
8:24 PM 63.0 °F 54.0 °F 72% 29.84 in 2.0 mi East 10.4 mph 21.9 mph 0.70 in Rain , Thunderstorm Heavy Thunderstorms and Rain
8:42 PM 62.1 °F 54.0 °F 75% 29.86 in 0.8 mi NNE 16.1 mph 21.9 mph 1.15 in Rain , Thunderstorm Heavy Thunderstorms and Rain
8:51 PM 62.1 °F 54.0 °F 75% 29.83 in 1.0 mi East 10.4 mph 27.6 mph 1.36 in Rain , Thunderstorm Heavy Thunderstorms and Rain
9:11 PM 60.1 °F 57.0 °F 90% 29.89 in 1.5 mi West 8.1 mph - 0.28 in Rain , Thunderstorm Heavy Thunderstorms and Rain
9:21 PM 60.1 °F 54.0 °F 80% 29.88 in 0.8 mi Variable 4.6 mph - 0.74 in Rain , Thunderstorm Heavy Thunderstorms and Rain
9:26 PM 60.1 °F 54.0 °F 80% 29.87 in 1.0 mi East 6.9 mph - 0.84 in Rain , Thunderstorm Heavy Thunderstorms and Rain
9:32 PM 57.9 °F 54.0 °F 87% 29.87 in 2.0 mi South 10.4 mph - 0.89 in Rain , Thunderstorm Heavy Thunderstorms and Rain
9:41 PM 59.0 °F 54.0 °F 83% 29.86 in 5.0 mi South 11.5 mph - 0.92 in Rain , Thunderstorm Thunderstorms and Rain
9:56 PM 59.0 °F 55.0 °F 87% 29.82 in 5.0 mi SSE 10.4 mph - 0.97 in Rain , Thunderstorm Heavy Thunderstorms and Rain
10:29 PM 59.0 °F 55.0 °F 87% 29.85 in 10.0 mi SSE 11.5 mph - 0.01 in Thunderstorm Scattered Clouds
10:48 PM 61.0 °F 55.0 °F 81% 29.84 in 10.0 mi SSE 10.4 mph - 0.01 in   Partly Cloudy
10:56 PM 60.1 °F 55.0 °F 83% 29.80 in 10.0 mi SSE 9.2 mph - 0.01 in   Mostly Cloudy